Regional Weather Roundup
Issued by NWS

Home | Current Version | Previous Version | Text Only | Print | Product List | Glossary On
Versions: 1 2 3 4 5 6 7 8 9 10 11 12 13 14 15 16 17 18 19 20 21 22 23 24 25 26 27 28 29 30 31 32 33 34 35 36 37 38 39 40 41 42 43 44 45 46 47 48 49 50
000
ASUS45 KTFX 081910
RWRMT
MONTANA REGIONAL WEATHER ROUNDUP
NATIONAL WEATHER SERVICE GREAT FALLS MT
1200 PM MST THU DEC 08 2016

NOTE: "FAIR" INDICATES FEW OR NO CLOUDS BELOW 12000 FEET WITH NO
SIGNIFICANT WEATHER AND/OR OBSTRUCTIONS TO VISIBILITY.

MTZ001>007-043-082000-
WEST OF THE DIVIDE

CITY           SKY/WX    TMP DP  RH WIND       PRES   REMARKS
KALISPELL      MOSUNNY    9  -2  61 N14       30.36F WCI  -7
MISSOULA       SUNNY     14   2  58 S6        30.32F WCI   5
BUTTE          SUNNY      6  -3  66 CALM      30.16F
MULLAN PASS    CLOUDY     1  -2  87 VRB6      30.02F FOG     WCI -10
ANACONDA         N/A     12   0  57 S6        30.17F WCI   3
DEER LODGE       N/A     10   0  61 SE6       30.22F WCI   1
EUREKA           N/A      0  -6  78 CALM      30.46F
HAMILTON         N/A     12   1  62 CALM      30.27F
LIBBY            N/A     10   3  72 N3        30.40F
PLAINS           N/A     17   5  59 E8        30.34F WCI   7
RONAN            N/A     13   6  73 N12       30.32F WCI  -1
THOMPSON FALLS   N/A     16   7  67 NE10      30.36F WCI   4
$$

MTZ008-052>055-082000-
SOUTHWEST MONTANA

CITY           SKY/WX    TMP DP  RH WIND       PRES   REMARKS
BOZEMAN        CLOUDY     8  -1  66 NE3       30.29F
DILLON         CLOUDY     6  -2  69 SW7       30.20F WCI  -6
W YELLOWSTONE  CLOUDY     0  -8  71 CALM      30.17F
ENNIS          SUNNY     12   0  57 SW5       30.22F
THREE FORKS      N/A     10 -46   6 CALM      30.26F
TWIN BRIDGES     N/A      7  -6  55 CALM      30.19F
$$

MTZ009-010-012-014-046-048-049-054-082000-
EAST SLOPES AND CENTRAL MONTANA

CITY           SKY/WX    TMP DP  RH WIND       PRES   REMARKS
CUT BANK       CLOUDY    -3  -9  75 CALM      30.43F HAZE
GREAT FALLS    CLOUDY     0  -7  72 VRB3      30.44F
MALMSTROM AFB  FLURRIES   0  -6  78 NE6       30.46F WCI -12
HELENA         CLOUDY     6  -3  66 NW5       30.36F
AUGUSTA        CLOUDY    -3  -9  74 N2        30.35F
BOWMANS CRNR   FLURRIES  -6  -9  86 NE8       30.34  WCI -21
CHOTEAU          N/A      0  -8  71 MISG      30.43F
CONRAD           N/A     -1  -7  76 NW5       30.42F
FAIRFIELD      FLURRIES  -1  -9  71 N3        30.41F
POWER          CLOUDY    -2  -8  75 N6        30.42F WCI -14
RAYNESFORD     PTSUNNY   -1  -6  80 N5        30.39F
ULM            PTSUNNY   -1  -6  79 N6        30.44F WCI -13
$$

MTZ011-013-016-021-045-047-050-051-082000-
NORTH CENTRAL MONTANA

CITY           SKY/WX    TMP DP  RH WIND       PRES   REMARKS
HAVRE          SUNNY      1  -6  72 NW6       30.59F WCI -10
LEWISTOWN      CLOUDY     2  -4  76 N3        30.38F
N BAR RANCH    CLOUDY     7  -2  66 SE8       30.36F WCI  -6
CHINOOK          N/A      0  -8  71 NW3       30.62F
DENTON         CLOUDY     1  -5  76 NW10G16   30.42F WCI -15
GEYSER         FLURRIES  -1  -5  82 E5        30.38F
GRASS RANGE    CLOUDY     2  -4  77 W1        30.39F
JUDITH GAP     CLOUDY     1  -3  83 S15       30.32F WCI -18
ROY            PTSUNNY    2  -3  82 MISG      30.44F
STANFORD       CLOUDY    -3  -6  86 NE3       30.35F
WINIFRED       PTSUNNY    1  -2  85 MISG      30.43F
$$

MTZ017>020-022>027-061-062-082000-
NORTHEAST MONTANA

CITY           SKY/WX    TMP DP  RH WIND       PRES   REMARKS
GLASGOW        MOSUNNY    2  -6  69 W8        30.63F WCI -12
JORDAN           N/A      4  -5  66 CALM      30.58F
SIDNEY         SUNNY      3  -5  69 W9        30.66F WCI -12
WOLF POINT     SUNNY      4  -6  63 W5        30.67F
PLENTYWOOD       N/A     -6 -11  77 NW12      30.61F WCI -24
POPLAR           N/A      1  -8  66 W3        30.67F
SCOBEY           N/A     -3 -15  56 NW9       30.53F WCI -19
$$

MTZ028>42-056>058-082000-
SOUTHCENTRAL AND SOUTHEAST MONTANA

CITY           SKY/WX    TMP DP  RH WIND       PRES   REMARKS
BAKER          CLOUDY    -3  -8  79 W10       30.56F WCI -20
BILLINGS       SUNNY      7  -3  64 E8        30.44F WCI  -6
LIVINGSTON     MOSUNNY    1  -5  75 E5        30.30F
MILES CITY     SUNNY      7  -5  57 CALM      30.59F
BIG TIMBER     PTSUNNY    1  -2  85 E8        30.36F WCI -12
EKALAKA          N/A      0  -8  68 W6        30.41F WCI -11
FORSYTH          N/A      7  -6  56 CALM      30.57F
HARLOWTON      PTSUNNY    1  -4  77 SE5       30.36F
LAUREL           N/A      8  -6  52 NE7       30.37F WCI  -3
ROUNDUP          N/A      7  -8  50 S1        30.34F
$$

REGIONAL REPORTS...DAKOTAS

CITY           SKY/WX    TMP DP  RH WIND       PRES   REMARKS
WILLISTON      MOSUNNY   -2  -9  72 NW10      30.66F WCI -19
MINOT          SUNNY      1  -6  72 W16       30.61F WCI -19
DICKINSON      PTSUNNY   -1  -8  72 NW17      30.55F WCI -22
BEACH          FLURRIES   0  -4  85 W14       30.60F WCI -19
CROSBY         CLOUDY     0  -4  85 W14       30.64F WCI -19
TIOGA            N/A     -2  -6  84 W14       30.60S WCI -21
WATFORD CITY     N/A     -2  -9  71 NW12      30.63F WCI -20
BISMARCK       MOSUNNY    4  -2  76 NW20      30.64S WCI -17
GRAND FORKS    LGT SNOW  16  11  80 NW16      30.53S VSB 3/4 WCI   1
FARGO          LGT SNOW  17  11  77 NW18      30.53S VSB 1   WCI   1
BUFFALO SD       N/A      5  -5  63 NW14      30.46F WCI -12
RAPID CITY     SUNNY     13  -3  49 N9        30.52F WCI   1
$$

REGIONAL REPORTS...WYOMING/IDAHO/WASHINGTON

CITY           SKY/WX    TMP DP  RH WIND       PRES   REMARKS
GILLETTE       SUNNY      5  -3  69 S9        30.40F WCI  -9
SHERIDAN       SUNNY      2  -6  69 NW5       30.41F
BUFFALO WY     SUNNY      8  -6  52 S15       30.32F WCI  -9
CODY           CLOUDY     6  -3  66 S3        30.28F
YELLOWSTONE LA   N/A      5  -4  66 CALM      30.10F
IDAHO FALLS    CLOUDY    18   5  57 N5        30.24F
SALMON         CLOUDY     7   1  78 CALM      30.28F
BOISE          LGT SNOW  22  16  78 SE7       30.20F WCI  13
SPOKANE        MOSUNNY   21   5  50 NE13      30.24F WCI   9
$$

REGIONAL REPORTS...ALBERTA

CITY           SKY/WX    TMP DP  RH WIND       PRES   REMARKS
EDMONTON         N/A     -6 -15  65 NE2       30.67F
CALGARY        CRYSTALS  -4 -11  71 CALM      30.47F
LETHBRIDGE     FLURRIES  -8 -13  77 N6        30.54F WCI -21
MEDICINE HAT   PTSUNNY   -8 -13  77 SW6       30.65F WCI -21
WATERTON GATE    N/A     -6 -11  77 NE5         N/A
CARDSTON         N/A     -4 -11  71 N2          N/A
MILK RIVER       N/A     -2  -8  78 N5          N/A
ONEFOUR          N/A     -6  -9  84 NW9         N/A  WCI -22
$$

REGIONAL REPORTS...SASKATCHEWAN

CITY           SKY/WX    TMP DP  RH WIND       PRES   REMARKS
SWIFT CURRENT  CLOUDY    -4  -8  84 NW10      30.55F WCI -21
REGINA         MOSUNNY    0  -8  71 NW13      30.62F WCI -18
SASKATOON      CRYSTALS  -4 -11  71 N9        30.69F WCI -20
CYPRESS HILLS    N/A     -6 -11  77 NW2         N/A
VAL MARIE        N/A     -2 -11  65 W3          N/A
ROCKGLEN         N/A     -4  -9  77 NW9         N/A  WCI -20
$$



USA.gov is the U.S. government's official web portal to all federal, state and local government web resources and services.